Time,TemperatureF,DewpointF,PressureIn,WindDirection,WindDirectionDegrees,WindSpeedMPH,WindSpeedGustMPH,Humidity,HourlyPrecipIn,Conditions,Clouds,dailyrainin,SolarRadiationWatts/m^2,SoftwareType,DateUTC
2013-07-17 00:04:00,73.3,71.2,30.22,NE,56,0.0,0.0,93,0.00,RA,,0.00,0.0,WeatherDisplay:10.37,2013-07-17 05:04:00,
2013-07-17 00:09:00,73.4,71.3,30.21,NE,56,0.0,0.0,93,0.00,BKN,,0.00,0.0,WeatherDisplay:10.37,2013-07-17 05:09:00,
2013-07-17 00:14:00,73.7,71.2,30.22,NE,56,0.0,0.0,92,0.00,BKN,,0.00,0.0,WeatherDisplay:10.37,2013-07-17 05:14:00,
2013-07-17 00:19:00,73.8,71.3,30.22,NE,56,0.0,0.0,92,0.00,BKN,,0.00,0.0,WeatherDisplay:10.37,2013-07-17 05:19:00,
2013-07-17 00:24:00,73.9,71.4,30.22,NE,56,1.9,3.5,92,0.00,BKN,,0.00,0.0,WeatherDisplay:10.37,2013-07-17 05:24:00,
2013-07-17 00:29:00,74.0,71.2,30.22,NE,56,0.0,0.0,91,0.00,BKN,,0.00,0.0,WeatherDisplay:10.37,2013-07-17 05:29:00,
2013-07-17 00:34:00,73.9,71.1,30.22,NE,56,0.0,0.0,91,0.00,OVC,,0.00,0.0,WeatherDisplay:10.37,2013-07-17 05:34:00,
2013-07-17 00:39:00,73.8,71.3,30.22,NE,56,0.0,0.0,92,0.00,OVC,,0.00,0.0,WeatherDisplay:10.37,2013-07-17 05:39:00,
2013-07-17 00:44:00,73.7,71.2,30.23,NE,56,0.1,1.2,92,0.00,OVC,,0.00,0.0,WeatherDisplay:10.37,2013-07-17 05:44:00,
2013-07-17 00:49:00,73.5,71.0,30.23,NE,56,0.3,2.0,92,0.00,OVC,,0.00,0.0,WeatherDisplay:10.37,2013-07-17 05:49:00,
2013-07-17 00:54:00,73.4,70.6,30.23,NE,56,0.0,0.0,91,0.00,OVC,,0.00,0.0,WeatherDisplay:10.37,2013-07-17 05:54:00,
2013-07-17 00:59:00,73.3,70.8,30.23,NE,56,0.0,0.0,92,0.00,OVC,,0.00,0.0,WeatherDisplay:10.37,2013-07-17 05:59:00,
2013-07-17 01:04:00,73.1,70.6,30.22,NE,56,0.0,0.0,92,0.00,OVC,,0.00,0.0,WeatherDisplay:10.37,2013-07-17 06:04:00,
2013-07-17 01:09:00,72.9,70.4,30.23,NE,56,0.0,0.0,92,0.00,OVC,,0.00,0.0,WeatherDisplay:10.37,2013-07-17 06:09:00,
2013-07-17 01:14:00,72.8,70.7,30.23,NE,56,0.0,0.0,93,0.00,OVC,,0.00,0.0,WeatherDisplay:10.37,2013-07-17 06:14:00,
2013-07-17 01:19:00,72.6,70.5,30.22,NE,56,0.0,0.0,93,0.00,OVC,,0.00,0.0,WeatherDisplay:10.37,2013-07-17 06:19:00,
2013-07-17 01:24:00,72.5,70.4,30.22,NE,56,1.8,3.5,93,0.00,OVC,,0.00,0.0,WeatherDisplay:10.37,2013-07-17 06:24:00,
2013-07-17 01:29:00,72.4,70.6,30.22,NE,56,0.0,0.0,94,0.00,OVC,,0.00,0.0,WeatherDisplay:10.37,2013-07-17 06:29:00,
2013-07-17 01:34:00,72.3,70.5,30.22,NE,56,0.0,0.0,94,0.00,SCT,,0.00,0.0,WeatherDisplay:10.37,2013-07-17 06:34:00,
2013-07-17 01:39:00,72.3,70.5,30.22,NE,56,0.0,0.0,94,0.00,SCT,,0.00,0.0,WeatherDisplay:10.37,2013-07-17 06:39:00,
2013-07-17 01:44:00,72.2,70.4,30.22,NE,56,0.0,0.0,94,0.00,SCT,,0.00,0.0,WeatherDisplay:10.37,2013-07-17 06:44:00,
2013-07-17 01:49:00,72.1,70.3,30.22,NE,56,0.0,0.0,94,0.00,SCT,,0.00,0.0,WeatherDisplay:10.37,2013-07-17 06:49:00,
2013-07-17 01:54:00,72.1,70.3,30.22,NE,56,0.0,0.0,94,0.00,SCT,,0.00,0.0,WeatherDisplay:10.37,2013-07-17 06:54:00,
2013-07-17 01:59:00,72.1,70.3,30.21,NE,56,2.7,4.6,94,0.00,SCT,,0.00,0.0,WeatherDisplay:10.37,2013-07-17 06:59:00,
2013-07-17 02:04:00,72.1,70.3,30.22,NE,56,0.0,0.0,94,0.00,SCT,,0.00,0.0,WeatherDisplay:10.37,2013-07-17 07:04:00,
2013-07-17 02:09:00,72.0,70.2,30.21,NE,56,0.0,0.0,94,0.00,SCT,,0.00,0.0,WeatherDisplay:10.37,2013-07-17 07:09:00,
2013-07-17 02:14:00,72.0,70.2,30.22,NE,56,0.0,0.0,94,0.00,SCT,,0.00,0.0,WeatherDisplay:10.37,2013-07-17 07:14:00,
2013-07-17 02:19:00,71.9,70.1,30.21,NE,56,0.0,0.0,94,0.00,SCT,,0.00,0.0,WeatherDisplay:10.37,2013-07-17 07:19:00,
2013-07-17 02:24:00,71.9,70.1,30.21,NE,56,0.0,0.0,94,0.00,SCT,,0.00,0.0,WeatherDisplay:10.37,2013-07-17 07:24:00,
2013-07-17 02:29:00,71.9,70.1,30.21,NE,56,0.0,0.0,94,0.00,SCT,,0.00,0.0,WeatherDisplay:10.37,2013-07-17 07:29:00,
2013-07-17 02:34:00,71.9,70.1,30.21,NE,56,0.9,3.5,94,0.00,SCT,,0.00,0.0,WeatherDisplay:10.37,2013-07-17 07:34:00,
2013-07-17 02:39:00,71.8,70.0,30.21,NE,56,0.0,0.0,94,0.00,SCT,,0.00,0.0,WeatherDisplay:10.37,2013-07-17 07:39:00,
2013-07-17 02:44:00,71.8,70.0,30.20,NE,56,1.6,4.6,94,0.00,SCT,,0.00,0.0,WeatherDisplay:10.37,2013-07-17 07:44:00,
2013-07-17 02:49:00,71.8,70.3,30.20,NE,56,0.0,0.0,95,0.00,SCT,,0.00,0.0,WeatherDisplay:10.37,2013-07-17 07:49:00,
2013-07-17 02:54:00,71.7,70.2,30.20,NE,56,0.0,0.0,95,0.00,SCT,,0.00,0.0,WeatherDisplay:10.37,2013-07-17 07:54:00,
2013-07-17 02:59:00,71.7,70.2,30.20,NE,56,0.0,1.2,95,0.00,SCT,,0.00,0.0,WeatherDisplay:10.37,2013-07-17 07:59:00,
2013-07-17 03:04:00,71.7,70.2,30.20,NE,56,0.0,0.0,95,0.00,CLR,,0.00,0.0,WeatherDisplay:10.37,2013-07-17 08:04:00,
2013-07-17 03:09:00,71.6,70.1,30.20,NE,56,0.0,0.0,95,0.00,CLR,,0.00,0.0,WeatherDisplay:10.37,2013-07-17 08:09:00,
2013-07-17 03:14:00,71.6,69.8,30.20,NE,56,0.0,0.0,94,0.00,CLR,,0.00,0.0,WeatherDisplay:10.37,2013-07-17 08:14:00,
2013-07-17 03:19:00,71.5,70.0,30.20,NE,56,0.0,0.0,95,0.00,CLR,,0.00,0.0,WeatherDisplay:10.37,2013-07-17 08:19:00,
2013-07-17 03:24:00,71.4,69.9,30.20,NE,56,0.0,0.0,95,0.00,CLR,,0.00,0.0,WeatherDisplay:10.37,2013-07-17 08:24:00,
2013-07-17 03:29:00,71.4,69.9,30.20,NE,56,0.0,0.0,95,0.00,CLR,,0.00,0.0,WeatherDisplay:10.37,2013-07-17 08:29:00,
2013-07-17 03:34:00,71.4,69.9,30.20,NE,56,0.0,0.0,95,0.00,CLR,,0.00,0.0,WeatherDisplay:10.37,2013-07-17 08:34:00,
2013-07-17 03:39:00,71.2,69.7,30.20,NE,56,0.0,0.0,95,0.00,CLR,,0.00,0.0,WeatherDisplay:10.37,2013-07-17 08:39:00,
2013-07-17 03:44:00,71.1,69.6,30.20,NE,56,0.0,0.0,95,0.00,CLR,,0.00,0.0,WeatherDisplay:10.37,2013-07-17 08:44:00,
2013-07-17 03:49:00,71.1,69.6,30.20,NE,56,0.0,0.0,95,0.00,CLR,,0.00,0.0,WeatherDisplay:10.37,2013-07-17 08:49:00,
2013-07-17 03:54:00,71.0,69.5,30.20,NE,56,0.0,0.0,95,0.00,CLR,,0.00,0.0,WeatherDisplay:10.37,2013-07-17 08:54:00,
2013-07-17 03:59:00,71.0,69.5,30.21,NE,56,0.0,0.0,95,0.00,CLR,,0.00,0.0,WeatherDisplay:10.37,2013-07-17 08:59:00,
2013-07-17 04:04:00,71.0,69.5,30.21,NE,56,0.0,0.0,95,0.00,CLR,,0.00,0.0,WeatherDisplay:10.37,2013-07-17 09:04:00,
2013-07-17 04:09:00,71.0,69.5,30.21,NE,56,0.0,0.0,95,0.00,CLR,,0.00,0.0,WeatherDisplay:10.37,2013-07-17 09:09:00,
2013-07-17 04:14:00,71.0,69.5,30.21,NE,56,0.0,0.0,95,0.00,CLR,,0.00,0.0,WeatherDisplay:10.37,2013-07-17 09:14:00,
2013-07-17 04:19:00,71.0,69.5,30.21,NE,56,0.0,0.0,95,0.00,CLR,,0.00,0.0,WeatherDisplay:10.37,2013-07-17 09:19:00,
2013-07-17 04:24:00,71.0,69.5,30.21,NE,56,0.0,0.0,95,0.00,CLR,,0.00,0.0,WeatherDisplay:10.37,2013-07-17 09:24:00,
2013-07-17 04:29:00,70.9,69.4,30.21,NE,56,0.0,0.0,95,0.00,CLR,,0.00,0.0,WeatherDisplay:10.37,2013-07-17 09:29:00,
2013-07-17 04:34:00,70.9,69.4,30.21,NE,56,0.0,0.0,95,0.00,CLR,,0.00,0.0,WeatherDisplay:10.37,2013-07-17 09:34:00,
2013-07-17 04:39:00,71.0,69.5,30.22,NE,56,0.0,0.0,95,0.00,CLR,,0.00,0.0,WeatherDisplay:10.37,2013-07-17 09:39:00,
2013-07-17 04:44:00,70.9,69.4,30.22,NE,56,0.0,0.0,95,0.00,CLR,,0.00,0.0,WeatherDisplay:10.37,2013-07-17 09:44:00,
2013-07-17 04:49:00,70.9,69.4,30.22,NE,56,0.0,0.0,95,0.00,SCT,,0.00,0.0,WeatherDisplay:10.37,2013-07-17 09:49:00,
2013-07-17 04:54:00,71.0,69.5,30.22,NE,56,0.0,0.0,95,0.00,SCT,,0.00,0.0,WeatherDisplay:10.37,2013-07-17 09:54:00,
2013-07-17 04:59:00,70.9,69.4,30.22,NE,56,0.0,0.0,95,0.00,SCT,,0.00,0.0,WeatherDisplay:10.37,2013-07-17 09:59:00,
2013-07-17 05:04:00,71.0,69.5,30.22,NE,56,0.0,0.0,95,0.00,SCT,,0.00,0.0,WeatherDisplay:10.37,2013-07-17 10:04:00,
2013-07-17 05:09:00,71.0,69.5,30.22,NE,56,0.0,0.0,95,0.00,SCT,,0.00,0.0,WeatherDisplay:10.37,2013-07-17 10:09:00,
2013-07-17 05:14:00,70.9,69.4,30.22,NE,56,0.0,0.0,95,0.00,SCT,,0.00,0.0,WeatherDisplay:10.37,2013-07-17 10:14:00,
2013-07-17 05:19:00,70.8,69.3,30.22,NE,56,0.0,0.0,95,0.00,SCT,,0.00,0.0,WeatherDisplay:10.37,2013-07-17 10:19:00,
2013-07-17 05:24:00,70.9,69.4,30.22,NE,56,0.0,0.0,95,0.00,SCT,,0.00,0.0,WeatherDisplay:10.37,2013-07-17 10:24:00,
2013-07-17 05:29:00,70.9,69.4,30.22,NE,56,0.0,1.2,95,0.00,SCT,,0.00,0.0,WeatherDisplay:10.37,2013-07-17 10:29:00,
2013-07-17 05:34:00,70.9,69.4,30.22,NE,56,0.0,0.0,95,0.00,CLR,,0.00,0.0,WeatherDisplay:10.37,2013-07-17 10:34:00,
2013-07-17 05:39:00,70.8,69.3,30.22,NE,56,0.0,0.0,95,0.00,CLR,,0.00,0.0,WeatherDisplay:10.37,2013-07-17 10:39:00,
2013-07-17 05:44:00,70.9,69.4,30.22,NE,56,0.0,0.0,95,0.00,CLR,,0.00,0.0,WeatherDisplay:10.37,2013-07-17 10:44:00,
2013-07-17 05:49:00,70.9,69.4,30.22,NE,56,0.0,0.0,95,0.00,CLR,,0.00,0.0,WeatherDisplay:10.37,2013-07-17 10:49:00,
2013-07-17 05:54:00,70.8,69.3,30.23,NE,56,0.0,0.0,95,0.00,CLR,,0.00,0.0,WeatherDisplay:10.37,2013-07-17 10:54:00,
2013-07-17 05:59:00,70.7,69.2,30.23,NE,56,0.0,0.0,95,0.00,CLR,,0.00,0.0,WeatherDisplay:10.37,2013-07-17 10:59:00,
2013-07-17 06:04:00,70.6,69.1,30.23,NE,56,0.0,0.0,95,0.00,SCT,,0.00,0.0,WeatherDisplay:10.37,2013-07-17 11:04:00,
2013-07-17 06:09:00,70.7,69.2,30.23,NE,56,0.0,0.0,95,0.00,SCT,,0.00,0.0,WeatherDisplay:10.37,2013-07-17 11:09:00,
2013-07-17 06:14:00,70.7,69.2,30.23,NE,56,0.0,0.0,95,0.00,SCT,,0.00,0.0,WeatherDisplay:10.37,2013-07-17 11:14:00,
2013-07-17 06:19:00,70.7,69.5,30.23,NE,56,0.0,0.0,96,0.00,SCT,,0.00,0.0,WeatherDisplay:10.37,2013-07-17 11:19:00,
2013-07-17 06:24:00,70.7,69.2,30.23,NE,56,0.0,0.0,95,0.00,SCT,,0.00,0.0,WeatherDisplay:10.37,2013-07-17 11:24:00,
2013-07-17 06:29:00,70.6,69.4,30.23,NE,56,0.0,0.0,96,0.00,SCT,,0.00,0.0,WeatherDisplay:10.37,2013-07-17 11:29:00,
2013-07-17 06:34:00,70.6,69.4,30.23,NE,56,0.0,0.0,96,0.00,SCT,,0.00,0.0,WeatherDisplay:10.37,2013-07-17 11:34:00,
2013-07-17 06:39:00,70.5,69.3,30.23,NE,56,0.0,0.0,96,0.00,SCT,,0.00,5.5,WeatherDisplay:10.37,2013-07-17 11:39:00,
2013-07-17 06:44:00,70.6,69.4,30.23,NE,56,0.0,0.0,96,0.00,SCT,,0.00,7.7,WeatherDisplay:10.37,2013-07-17 11:44:00,
2013-07-17 06:49:00,70.6,69.4,30.23,NE,56,0.6,2.3,96,0.00,CLR,,0.00,12.1,WeatherDisplay:10.37,2013-07-17 11:49:00,
2013-07-17 06:54:00,70.6,69.4,30.24,NE,56,0.7,3.5,96,0.00,CLR,,0.00,17.6,WeatherDisplay:10.37,2013-07-17 11:54:00,
2013-07-17 06:59:00,70.7,69.5,30.24,NE,56,0.7,3.5,96,0.00,CLR,,0.00,20.9,WeatherDisplay:10.37,2013-07-17 11:59:00,
2013-07-17 07:04:00,70.8,69.6,30.24,NE,56,0.0,0.0,96,0.00,CLR,,0.00,23.1,WeatherDisplay:10.37,2013-07-17 12:04:00,
2013-07-17 07:09:00,71.1,69.9,30.24,NE,56,0.7,3.5,96,0.00,CLR,,0.00,23.1,WeatherDisplay:10.37,2013-07-17 12:09:00,
2013-07-17 07:14:00,71.1,69.9,30.24,NE,56,1.0,3.5,96,0.00,CLR,,0.00,20.9,WeatherDisplay:10.37,2013-07-17 12:14:00,
2013-07-17 07:19:00,71.2,70.0,30.24,NE,56,0.2,1.0,96,0.00,CLR,,0.00,23.1,WeatherDisplay:10.37,2013-07-17 12:19:00,
2013-07-17 07:24:00,71.3,70.1,30.25,NE,56,1.3,3.5,96,0.00,CLR,,0.00,25.3,WeatherDisplay:10.37,2013-07-17 12:24:00,
2013-07-17 07:29:00,71.3,70.1,30.25,NE,56,0.8,2.3,96,0.00,CLR,,0.00,27.5,WeatherDisplay:10.37,2013-07-17 12:29:00,
2013-07-17 07:34:00,71.4,70.2,30.25,NE,56,0.4,2.3,96,0.00,CLR,,0.00,28.6,WeatherDisplay:10.37,2013-07-17 12:34:00,
2013-07-17 07:39:00,71.5,70.3,30.25,NE,56,0.0,0.0,96,0.00,CLR,,0.00,33.0,WeatherDisplay:10.37,2013-07-17 12:39:00,
2013-07-17 07:44:00,71.5,70.3,30.25,NE,56,0.0,0.0,96,0.00,CLR,,0.00,35.2,WeatherDisplay:10.37,2013-07-17 12:44:00,
2013-07-17 07:49:00,71.6,70.4,30.25,NE,56,0.0,0.0,96,0.00,CLR,,0.00,38.5,WeatherDisplay:10.37,2013-07-17 12:49:00,
2013-07-17 07:54:00,71.8,70.6,30.25,NE,56,0.7,3.5,96,0.00,CLR,,0.00,59.4,WeatherDisplay:10.37,2013-07-17 12:54:00,
2013-07-17 07:59:00,71.9,70.7,30.25,NE,56,0.0,0.0,96,0.00,CLR,,0.00,66.0,WeatherDisplay:10.37,2013-07-17 12:59:00,
2013-07-17 08:04:00,72.2,71.0,30.25,NE,56,0.0,0.0,96,0.00,CLR,,0.00,46.2,WeatherDisplay:10.37,2013-07-17 13:04:00,
2013-07-17 08:09:00,72.3,70.8,30.25,NE,56,0.0,0.0,95,0.00,CLR,,0.00,42.9,WeatherDisplay:10.37,2013-07-17 13:09:00,
2013-07-17 08:14:00,72.4,71.2,30.25,NE,56,0.0,0.0,96,0.00,CLR,,0.00,44.0,WeatherDisplay:10.37,2013-07-17 13:14:00,
2013-07-17 08:19:00,72.5,71.0,30.25,NE,56,0.0,0.0,95,0.00,CLR,,0.00,48.4,WeatherDisplay:10.37,2013-07-17 13:19:00,
2013-07-17 08:24:00,72.6,71.1,30.25,NE,56,0.6,3.5,95,0.00,CLR,,0.00,53.9,WeatherDisplay:10.37,2013-07-17 13:24:00,
2013-07-17 08:29:00,72.8,71.3,30.25,NE,56,0.0,0.0,95,0.00,CLR,,0.00,71.5,WeatherDisplay:10.37,2013-07-17 13:29:00,
2013-07-17 08:34:00,73.1,71.6,30.25,NE,56,0.2,1.0,95,0.00,CLR,,0.00,75.9,WeatherDisplay:10.37,2013-07-17 13:34:00,
2013-07-17 08:39:00,73.4,71.9,30.25,NE,56,0.0,0.0,95,0.00,CLR,,0.00,86.9,WeatherDisplay:10.37,2013-07-17 13:39:00,
2013-07-17 08:44:00,73.9,72.1,30.26,NE,56,0.0,0.0,94,0.00,CLR,,0.00,150.7,WeatherDisplay:10.37,2013-07-17 13:44:00,
2013-07-17 08:49:00,74.1,72.3,30.26,NE,56,2.0,3.5,94,0.00,CLR,,0.00,260.7,WeatherDisplay:10.37,2013-07-17 13:49:00,
2013-07-17 08:54:00,74.7,72.5,30.26,NE,56,3.8,4.6,93,0.00,CLR,,0.00,272.8,WeatherDisplay:10.37,2013-07-17 13:54:00,
2013-07-17 08:59:00,75.0,72.5,30.26,NE,56,0.0,1.2,92,0.00,CLR,,0.00,301.4,WeatherDisplay:10.37,2013-07-17 13:59:00,
2013-07-17 09:04:00,75.4,72.9,30.27,NE,56,0.0,0.0,92,0.00,CLR,,0.00,321.2,WeatherDisplay:10.37,2013-07-17 14:04:00,
2013-07-17 09:05:00,75.5,73.0,30.27,NE,56,0.0,0.0,92,0.00,CLR,,0.00,315.7,WeatherDisplay:10.37,2013-07-17 14:05:00,
2013-07-17 09:10:00,75.9,73.1,30.26,NE,56,0.0,0.0,91,0.00,CLR,,0.00,354.2,WeatherDisplay:10.37,2013-07-17 14:10:00,
2013-07-17 09:15:00,76.4,73.2,30.27,NE,56,0.0,0.0,90,0.00,CLR,,0.00,413.6,WeatherDisplay:10.37,2013-07-17 14:15:00,
2013-07-17 09:20:00,77.0,73.8,30.27,NE,56,1.7,3.5,90,0.00,CLR,,0.00,418.0,WeatherDisplay:10.37,2013-07-17 14:20:00,
2013-07-17 09:25:00,77.0,73.5,30.27,NE,54,0.8,3.5,89,0.00,CLR,,0.00,431.2,WeatherDisplay:10.37,2013-07-17 14:25:00,
2013-07-17 09:30:00,77.3,73.5,30.26,NE,55,0.4,3.5,88,0.00,CLR,,0.00,466.4,WeatherDisplay:10.37,2013-07-17 14:30:00,
2013-07-17 09:35:00,78.2,74.4,30.26,NE,54,2.6,5.0,88,0.00,CLR,,0.00,539.0,WeatherDisplay:10.37,2013-07-17 14:35:00,
2013-07-17 09:40:00,79.0,74.5,30.26,ENE,66,2.8,4.6,86,0.00,CLR,,0.00,563.2,WeatherDisplay:10.37,2013-07-17 14:40:00,
2013-07-17 09:45:00,79.2,74.3,30.26,ENE,68,0.8,3.5,85,0.00,CLR,,0.00,627.0,WeatherDisplay:10.37,2013-07-17 14:45:00,
2013-07-17 09:50:00,79.7,74.4,30.26,ENE,70,3.4,4.6,84,0.00,SCT,,0.00,605.0,WeatherDisplay:10.37,2013-07-17 14:50:00,
2013-07-17 09:55:00,80.6,75.3,30.26,ENE,67,2.3,5.0,84,0.00,SCT,,0.00,661.1,WeatherDisplay:10.37,2013-07-17 14:55:00,
2013-07-17 10:00:00,80.4,74.4,30.26,ENE,70,0.5,3.5,82,0.00,SCT,,0.00,403.7,WeatherDisplay:10.37,2013-07-17 15:00:00,
2013-07-17 10:05:00,79.7,74.4,30.27,ENE,70,2.0,4.6,84,0.00,BKN,,0.00,342.1,WeatherDisplay:10.37,2013-07-17 15:05:00,
2013-07-17 10:10:00,79.6,74.3,30.26,ENE,70,2.9,3.5,84,0.00,BKN,,0.00,357.5,WeatherDisplay:10.37,2013-07-17 15:10:00,
2013-07-17 10:15:00,79.8,75.2,30.26,ENE,70,0.2,3.0,86,0.00,BKN,,0.00,778.8,WeatherDisplay:10.37,2013-07-17 15:15:00,
2013-07-17 10:20:00,80.1,74.5,30.26,ENE,70,3.0,4.6,83,0.00,BKN,,0.00,387.2,WeatherDisplay:10.37,2013-07-17 15:20:00,
2013-07-17 10:25:00,81.0,75.3,30.26,ENE,71,4.4,6.9,83,0.00,BKN,,0.00,913.0,WeatherDisplay:10.37,2013-07-17 15:25:00,
2013-07-17 10:30:00,82.0,74.8,30.26,ESE,117,2.8,9.0,79,0.00,OVC,,0.00,206.8,WeatherDisplay:10.37,2013-07-17 15:30:00,
2013-07-17 10:35:00,81.7,75.3,30.26,ESE,120,1.7,4.6,81,0.00,OVC,,0.00,970.2,WeatherDisplay:10.37,2013-07-17 15:35:00,
2013-07-17 10:40:00,81.7,74.5,30.26,ESE,120,0.8,4.6,79,0.00,OVC,,0.00,291.5,WeatherDisplay:10.37,2013-07-17 15:40:00,
2013-07-17 10:45:00,82.5,75.3,30.26,East,94,0.0,1.2,79,0.00,OVC,,0.00,295.9,WeatherDisplay:10.37,2013-07-17 15:45:00,
2013-07-17 10:50:00,82.2,74.7,30.26,East,93,1.7,3.5,78,0.01,RA,,0.01,987.8,WeatherDisplay:10.37,2013-07-17 15:50:00,
2013-07-17 10:55:00,82.1,74.6,30.26,East,90,2.4,6.9,78,0.01,RA,,0.01,268.4,WeatherDisplay:10.37,2013-07-17 15:55:00,
2013-07-17 11:00:00,81.7,74.2,30.26,East,91,1.9,4.6,78,0.01,OVC,,0.01,168.3,WeatherDisplay:10.37,2013-07-17 16:00:00,
2013-07-17 11:05:00,80.7,74.3,30.26,East,91,2.8,4.6,81,0.01,OVC,,0.01,235.4,WeatherDisplay:10.37,2013-07-17 16:05:00,
2013-07-17 11:10:00,81.7,74.9,30.26,East,90,3.2,4.6,80,0.01,OVC,,0.01,921.8,WeatherDisplay:10.37,2013-07-17 16:10:00,
2013-07-17 11:15:00,82.5,74.2,30.26,East,92,1.0,5.8,76,0.01,OVC,,0.01,385.0,WeatherDisplay:10.37,2013-07-17 16:15:00,
2013-07-17 11:20:00,82.1,74.2,30.26,ENE,77,2.2,6.9,77,0.01,OVC,,0.01,155.1,WeatherDisplay:10.37,2013-07-17 16:20:00,
2013-07-17 11:25:00,80.7,74.0,30.26,ENE,58,3.3,6.9,80,0.01,OVC,,0.01,156.2,WeatherDisplay:10.37,2013-07-17 16:25:00,
2013-07-17 11:30:00,80.1,73.7,30.26,NE,54,4.0,6.0,81,0.01,OVC,,0.01,133.1,WeatherDisplay:10.37,2013-07-17 16:30:00,
2013-07-17 11:35:00,79.8,74.5,30.26,NE,54,0.3,2.3,84,0.01,OVC,,0.01,203.5,WeatherDisplay:10.37,2013-07-17 16:35:00,
2013-07-17 11:40:00,79.6,74.3,30.26,NE,55,3.2,5.8,84,0.01,OVC,,0.01,204.6,WeatherDisplay:10.37,2013-07-17 16:40:00,
2013-07-17 11:45:00,80.0,74.0,30.26,ENE,77,1.2,4.6,82,0.01,-RA,,0.01,160.6,WeatherDisplay:10.37,2013-07-17 16:45:00,
2013-07-17 11:50:00,80.2,74.6,30.26,East,90,1.2,3.5,83,0.00,-RA,,0.01,239.8,WeatherDisplay:10.37,2013-07-17 16:50:00,
2013-07-17 11:55:00,80.2,73.8,30.26,East,89,0.8,2.3,81,0.00,-RA,,0.01,135.3,WeatherDisplay:10.37,2013-07-17 16:55:00,
2013-07-17 12:00:00,80.2,73.8,30.26,East,89,0.0,1.2,81,0.00,OVC,,0.01,129.8,WeatherDisplay:10.37,2013-07-17 17:00:00,
2013-07-17 12:05:00,79.9,74.3,30.26,East,89,0.0,0.0,83,0.00,OVC,,0.01,268.4,WeatherDisplay:10.37,2013-07-17 17:05:00,
2013-07-17 12:10:00,80.5,74.1,30.25,East,89,0.0,0.0,81,0.00,OVC,,0.01,305.8,WeatherDisplay:10.37,2013-07-17 17:10:00,
2013-07-17 12:15:00,81.7,74.9,30.25,East,88,2.0,4.6,80,0.00,OVC,,0.01,299.2,WeatherDisplay:10.37,2013-07-17 17:15:00,
2013-07-17 12:20:00,83.2,75.2,30.25,East,87,3.9,8.1,77,0.00,OVC,,0.01,375.1,WeatherDisplay:10.37,2013-07-17 17:20:00,
2013-07-17 12:25:00,83.6,74.4,30.25,East,96,5.1,9.2,74,0.00,OVC,,0.01,487.3,WeatherDisplay:10.37,2013-07-17 17:25:00,
2013-07-17 12:30:00,84.6,74.6,30.25,East,90,1.7,5.8,72,0.00,OVC,,0.01,1059.3,WeatherDisplay:10.37,2013-07-17 17:30:00,
2013-07-17 12:35:00,85.6,74.7,30.25,East,99,3.8,5.8,70,0.00,OVC,,0.01,234.3,WeatherDisplay:10.37,2013-07-17 17:35:00,
2013-07-17 12:40:00,84.4,74.4,30.25,East,80,4.0,8.0,72,0.00,OVC,,0.01,293.7,WeatherDisplay:10.37,2013-07-17 17:40:00,
2013-07-17 12:45:00,83.9,73.1,30.25,East,100,5.0,8.1,70,0.00,OVC,,0.01,359.7,WeatherDisplay:10.37,2013-07-17 17:45:00,
2013-07-17 12:50:00,85.0,74.1,30.25,ESE,121,6.5,11.5,70,0.00,BKN,,0.01,1166.0,WeatherDisplay:10.37,2013-07-17 17:50:00,
2013-07-17 12:55:00,84.4,73.1,30.25,ESE,104,4.5,11.5,69,0.00,BKN,,0.01,162.8,WeatherDisplay:10.37,2013-07-17 17:55:00,
2013-07-17 13:00:00,83.1,73.5,30.25,East,99,0.4,2.3,73,0.00,BKN,,0.01,278.3,WeatherDisplay:10.37,2013-07-17 18:00:00,
2013-07-17 13:05:00,82.7,75.5,30.24,SE,144,0.4,3.5,79,0.00,BKN,,0.01,1171.5,WeatherDisplay:10.37,2013-07-17 18:05:00,
2013-07-17 13:10:00,83.6,76.0,30.24,East,93,3.8,12.7,78,0.00,BKN,,0.01,1076.9,WeatherDisplay:10.37,2013-07-17 18:10:00,
2013-07-17 13:15:00,85.2,74.3,30.24,ESE,103,1.6,4.6,70,0.00,BKN,,0.01,1036.2,WeatherDisplay:10.37,2013-07-17 18:15:00,
2013-07-17 13:20:00,86.1,75.6,30.24,East,91,1.9,5.8,71,0.00,BKN,,0.01,1094.5,WeatherDisplay:10.37,2013-07-17 18:20:00,
2013-07-17 13:25:00,86.9,74.2,30.24,ESE,107,3.7,8.1,66,0.00,BKN,,0.01,1061.5,WeatherDisplay:10.37,2013-07-17 18:25:00,
2013-07-17 13:30:00,86.9,74.6,30.23,ESE,112,6.1,9.2,67,0.00,BKN,,0.01,1048.3,WeatherDisplay:10.37,2013-07-17 18:30:00,
2013-07-17 13:35:00,86.9,75.1,30.23,ESE,114,4.3,8.0,68,0.00,SCT,,0.01,1073.6,WeatherDisplay:10.37,2013-07-17 18:35:00,
2013-07-17 13:40:00,86.4,74.1,30.23,ESE,113,6.8,12.7,67,0.00,SCT,,0.01,1114.3,WeatherDisplay:10.37,2013-07-17 18:40:00,
2013-07-17 13:45:00,86.8,73.2,30.22,East,87,6.8,13.8,64,0.00,SCT,,0.01,1160.5,WeatherDisplay:10.37,2013-07-17 18:45:00,
2013-07-17 13:50:00,86.2,73.5,30.22,ESE,114,4.2,11.5,66,0.00,CLR,,0.01,1056.0,WeatherDisplay:10.37,2013-07-17 18:50:00,
2013-07-17 13:55:00,87.2,74.0,30.22,ESE,105,8.6,18.4,65,0.00,CLR,,0.01,1104.4,WeatherDisplay:10.37,2013-07-17 18:55:00,
2013-07-17 14:00:00,86.7,73.5,30.22,East,99,3.0,6.9,65,0.00,CLR,,0.01,1168.2,WeatherDisplay:10.37,2013-07-17 19:00:00,
2013-07-17 14:05:00,86.9,74.6,30.22,East,79,2.7,5.8,67,0.00,SCT,,0.01,1067.0,WeatherDisplay:10.37,2013-07-17 19:05:00,
2013-07-17 14:10:00,87.7,75.8,30.21,East,83,2.0,5.8,68,0.00,SCT,,0.01,1073.6,WeatherDisplay:10.37,2013-07-17 19:10:00,
2013-07-17 14:15:00,87.3,72.7,30.21,ESE,118,6.5,12.7,62,0.00,SCT,,0.01,1081.3,WeatherDisplay:10.37,2013-07-17 19:15:00,
2013-07-17 14:20:00,86.4,73.2,30.21,East,81,5.7,9.2,65,0.00,SCT,,0.01,1053.8,WeatherDisplay:10.37,2013-07-17 19:20:00,
2013-07-17 14:25:00,86.9,75.1,30.21,ESE,108,6.6,11.0,68,0.00,SCT,,0.01,1171.5,WeatherDisplay:10.37,2013-07-17 19:25:00,
2013-07-17 14:30:00,87.5,76.1,30.20,ESE,114,3.3,4.6,69,0.00,SCT,,0.01,1229.8,WeatherDisplay:10.37,2013-07-17 19:30:00,
2013-07-17 14:35:00,87.5,74.3,30.20,East,101,3.0,7.0,65,0.00,SCT,,0.01,276.1,WeatherDisplay:10.37,2013-07-17 19:35:00,
2013-07-17 14:40:00,85.8,72.7,30.20,East,85,2.1,3.5,65,0.00,SCT,,0.01,249.7,WeatherDisplay:10.37,2013-07-17 19:40:00,
2013-07-17 14:45:00,85.6,72.5,30.20,ESE,116,4.3,8.1,65,0.00,SCT,,0.01,295.9,WeatherDisplay:10.37,2013-07-17 19:45:00,
2013-07-17 14:50:00,86.2,73.5,30.20,ESE,115,3.1,8.1,66,0.00,SCT,,0.01,1048.3,WeatherDisplay:10.37,2013-07-17 19:50:00,
2013-07-17 14:55:00,87.9,73.7,30.20,ESE,110,6.0,11.5,63,0.00,SCT,,0.01,1023.0,WeatherDisplay:10.37,2013-07-17 19:55:00,
2013-07-17 15:00:00,88.5,73.8,30.19,South,175,2.7,9.2,62,0.00,SCT,,0.01,1061.5,WeatherDisplay:10.37,2013-07-17 20:00:00,
2013-07-17 15:05:00,89.1,72.9,30.19,ENE,71,6.4,12.7,59,0.00,BKN,,0.01,1084.6,WeatherDisplay:10.37,2013-07-17 20:05:00,
2013-07-17 15:10:00,89.0,73.3,30.19,SE,126,4.0,11.5,60,0.00,BKN,,0.01,1063.7,WeatherDisplay:10.37,2013-07-17 20:10:00,
2013-07-17 15:15:00,89.5,71.2,30.19,SSE,147,5.3,11.5,55,0.00,BKN,,0.01,1043.9,WeatherDisplay:10.37,2013-07-17 20:15:00,
2013-07-17 15:20:00,89.6,71.8,30.19,SE,146,4.7,8.1,56,0.00,BKN,,0.01,1102.2,WeatherDisplay:10.37,2013-07-17 20:20:00,
2013-07-17 15:25:00,90.4,73.1,30.19,SSE,149,3.8,10.4,57,0.00,BKN,,0.01,1104.4,WeatherDisplay:10.37,2013-07-17 20:25:00,
2013-07-17 15:30:00,90.6,72.8,30.19,ESE,118,5.1,11.5,56,0.00,BKN,,0.01,1096.7,WeatherDisplay:10.37,2013-07-17 20:30:00,
2013-07-17 15:35:00,90.1,73.3,30.19,East,85,7.0,11.5,58,0.00,SCT,,0.01,921.8,WeatherDisplay:10.37,2013-07-17 20:35:00,
2013-07-17 15:40:00,89.6,73.4,30.19,SE,128,5.2,11.5,59,0.00,SCT,,0.01,920.7,WeatherDisplay:10.37,2013-07-17 20:40:00,
2013-07-17 15:45:00,89.3,73.1,30.19,East,93,6.3,18.4,59,0.00,SCT,,0.01,921.8,WeatherDisplay:10.37,2013-07-17 20:45:00,
2013-07-17 15:50:00,89.2,72.5,30.19,SE,136,4.3,8.1,58,0.00,SCT,,0.01,947.1,WeatherDisplay:10.37,2013-07-17 20:50:00,
2013-07-17 15:55:00,88.8,71.6,30.18,SSE,158,5.6,12.7,57,0.00,SCT,,0.01,910.8,WeatherDisplay:10.37,2013-07-17 20:55:00,
2013-07-17 16:00:00,89.0,72.3,30.18,SE,136,11.5,13.0,58,0.00,SCT,,0.01,895.4,WeatherDisplay:10.37,2013-07-17 21:00:00,
2013-07-17 16:05:00,88.9,72.2,30.18,SE,131,2.7,11.5,58,0.00,SCT,,0.01,849.2,WeatherDisplay:10.37,2013-07-17 21:05:00,
2013-07-17 16:10:00,89.3,73.1,30.18,East,97,1.5,6.9,59,0.00,SCT,,0.01,754.6,WeatherDisplay:10.37,2013-07-17 21:10:00,
2013-07-17 16:15:00,89.0,72.8,30.18,SE,130,3.5,11.5,59,0.00,SCT,,0.01,724.9,WeatherDisplay:10.37,2013-07-17 21:15:00,
2013-07-17 16:20:00,89.1,73.9,30.18,SSE,158,4.3,9.0,61,0.00,SCT,,0.01,651.2,WeatherDisplay:10.37,2013-07-17 21:20:00,
2013-07-17 16:25:00,88.4,71.7,30.18,SSE,162,5.9,13.8,58,0.00,SCT,,0.01,635.8,WeatherDisplay:10.37,2013-07-17 21:25:00,
2013-07-17 16:30:00,88.5,71.8,30.18,ESE,116,4.3,6.9,58,0.00,SCT,,0.01,554.4,WeatherDisplay:10.37,2013-07-17 21:30:00,
2013-07-17 16:35:00,88.5,72.3,30.17,SSE,152,5.7,11.5,59,0.00,SCT,,0.01,566.5,WeatherDisplay:10.37,2013-07-17 21:35:00,
2013-07-17 16:40:00,88.5,71.3,30.17,ESE,120,7.2,11.5,57,0.00,SCT,,0.01,543.4,WeatherDisplay:10.37,2013-07-17 21:40:00,
2013-07-17 16:45:00,88.1,71.5,30.17,ESE,118,7.4,13.8,58,0.00,SCT,,0.01,508.2,WeatherDisplay:10.37,2013-07-17 21:45:00,
2013-07-17 16:50:00,88.0,72.4,30.17,SSE,156,5.6,9.2,60,0.00,SCT,,0.01,481.8,WeatherDisplay:10.37,2013-07-17 21:50:00,
2013-07-17 16:55:00,87.8,72.2,30.17,SSE,153,7.8,13.8,60,0.00,SCT,,0.01,433.4,WeatherDisplay:10.37,2013-07-17 21:55:00,
2013-07-17 17:00:00,87.8,72.2,30.17,SE,139,4.7,8.1,60,0.00,SCT,,0.01,403.7,WeatherDisplay:10.37,2013-07-17 22:00:00,
2013-07-17 17:05:00,87.5,72.4,30.17,SSE,162,5.9,10.4,61,0.00,CLR,,0.01,388.3,WeatherDisplay:10.37,2013-07-17 22:05:00,
2013-07-17 17:10:00,87.5,72.9,30.17,SE,144,4.7,8.1,62,0.00,CLR,,0.01,402.6,WeatherDisplay:10.37,2013-07-17 22:10:00,
2013-07-17 17:15:00,87.3,72.7,30.17,SE,145,5.1,9.2,62,0.00,CLR,,0.01,400.4,WeatherDisplay:10.37,2013-07-17 22:15:00,
2013-07-17 17:20:00,87.2,72.6,30.17,SSE,148,2.5,3.5,62,0.00,CLR,,0.01,415.8,WeatherDisplay:10.37,2013-07-17 22:20:00,
2013-07-17 17:25:00,87.5,72.9,30.17,SE,133,1.8,6.9,62,0.00,CLR,,0.01,402.6,WeatherDisplay:10.37,2013-07-17 22:25:00,
2013-07-17 17:30:00,87.6,74.4,30.17,SE,139,0.5,2.3,65,0.00,CLR,,0.01,392.7,WeatherDisplay:10.37,2013-07-17 22:30:00,
2013-07-17 17:35:00,87.6,72.5,30.16,SE,135,3.3,4.6,61,0.00,CLR,,0.01,338.8,WeatherDisplay:10.37,2013-07-17 22:35:00,
2013-07-17 17:40:00,87.2,72.6,30.16,SE,135,0.4,5.8,62,0.00,CLR,,0.01,313.5,WeatherDisplay:10.37,2013-07-17 22:40:00,
2013-07-17 17:45:00,87.0,72.9,30.17,ESE,117,3.0,6.9,63,0.00,CLR,,0.01,299.2,WeatherDisplay:10.37,2013-07-17 22:45:00,
2013-07-17 17:50:00,86.8,73.2,30.16,SE,126,1.4,5.8,64,0.00,CLR,,0.01,299.2,WeatherDisplay:10.37,2013-07-17 22:50:00,
2013-07-17 17:55:00,86.7,73.1,30.16,SSE,157,3.3,9.0,64,0.00,CLR,,0.01,286.0,WeatherDisplay:10.37,2013-07-17 22:55:00,
2013-07-17 18:00:00,86.5,73.3,30.16,SSE,153,1.9,3.5,65,0.00,CLR,,0.01,293.7,WeatherDisplay:10.37,2013-07-17 23:00:00,
2013-07-17 18:05:00,86.6,73.9,30.16,SSE,153,0.6,4.6,66,0.00,CLR,,0.01,259.6,WeatherDisplay:10.37,2013-07-17 23:05:00,
2013-07-17 18:10:00,86.4,73.2,30.16,SSE,153,3.4,5.0,65,0.00,CLR,,0.01,226.6,WeatherDisplay:10.37,2013-07-17 23:10:00,
2013-07-17 18:15:00,86.2,74.0,30.16,SSE,153,0.4,4.6,67,0.00,CLR,,0.01,199.1,WeatherDisplay:10.37,2013-07-17 23:15:00,
2013-07-17 18:20:00,85.8,73.6,30.16,SSE,153,1.2,2.0,67,0.00,CLR,,0.01,209.0,WeatherDisplay:10.37,2013-07-17 23:20:00,
2013-07-17 18:25:00,85.7,74.4,30.16,SSE,153,0.0,1.2,69,0.00,CLR,,0.01,220.0,WeatherDisplay:10.37,2013-07-17 23:25:00,
2013-07-17 18:30:00,85.7,73.9,30.16,SSE,153,0.6,2.3,68,0.00,CLR,,0.01,214.5,WeatherDisplay:10.37,2013-07-17 23:30:00,
2013-07-17 18:35:00,85.6,73.8,30.16,SSE,153,0.1,1.2,68,0.00,CLR,,0.01,212.3,WeatherDisplay:10.37,2013-07-17 23:35:00,
2013-07-17 18:40:00,85.5,73.7,30.16,SSE,152,0.0,0.0,68,0.00,CLR,,0.01,189.2,WeatherDisplay:10.37,2013-07-17 23:40:00,
2013-07-17 18:45:00,85.3,73.5,30.16,SSE,152,0.9,5.0,68,0.00,CLR,,0.01,170.5,WeatherDisplay:10.37,2013-07-17 23:45:00,
2013-07-17 18:50:00,85.0,73.7,30.16,SSE,152,0.6,2.3,69,0.00,CLR,,0.01,152.9,WeatherDisplay:10.37,2013-07-17 23:50:00,
2013-07-17 18:55:00,84.7,73.4,30.16,SSE,152,0.4,1.2,69,0.00,CLR,,0.01,140.8,WeatherDisplay:10.37,2013-07-17 23:55:00,
2013-07-17 19:00:00,84.6,73.7,30.17,SSE,152,0.0,2.3,70,0.00,CLR,,0.01,129.8,WeatherDisplay:10.37,2013-07-18 00:00:00,
2013-07-17 19:05:00,84.3,73.9,30.17,SSE,152,0.0,1.2,71,0.00,CLR,,0.01,112.2,WeatherDisplay:10.37,2013-07-18 00:05:00,
2013-07-17 19:10:00,84.0,73.6,30.17,SSE,152,0.0,0.0,71,0.00,CLR,,0.01,104.5,WeatherDisplay:10.37,2013-07-18 00:10:00,
2013-07-17 19:15:00,83.8,73.8,30.17,SSE,152,0.0,0.0,72,0.00,CLR,,0.01,94.6,WeatherDisplay:10.37,2013-07-18 00:15:00,
2013-07-17 19:20:00,83.8,74.2,30.17,SSE,152,0.1,0.0,73,0.00,CLR,,0.01,89.1,WeatherDisplay:10.37,2013-07-18 00:20:00,
2013-07-17 19:25:00,83.3,74.9,30.17,SSE,152,0.0,0.0,76,0.00,CLR,,0.01,79.2,WeatherDisplay:10.37,2013-07-18 00:25:00,
2013-07-17 19:30:00,82.9,75.3,30.17,SSE,152,0.0,0.0,78,0.00,CLR,,0.01,71.5,WeatherDisplay:10.37,2013-07-18 00:30:00,
2013-07-17 19:35:00,82.5,74.6,30.17,SSE,152,0.0,0.0,77,0.00,CLR,,0.01,66.0,WeatherDisplay:10.37,2013-07-18 00:35:00,
2013-07-17 19:40:00,82.3,75.1,30.17,SSE,152,0.0,0.0,79,0.00,CLR,,0.01,59.4,WeatherDisplay:10.37,2013-07-18 00:40:00,
2013-07-17 19:45:00,82.1,74.2,30.17,SSE,152,0.0,0.0,77,0.00,CLR,,0.01,53.9,WeatherDisplay:10.37,2013-07-18 00:45:00,
2013-07-17 19:50:00,82.2,74.3,30.17,SSE,152,0.0,0.0,77,0.00,CLR,,0.01,50.6,WeatherDisplay:10.37,2013-07-18 00:50:00,
2013-07-17 19:55:00,82.4,75.2,30.17,SSE,152,0.0,0.0,79,0.00,CLR,,0.01,44.0,WeatherDisplay:10.37,2013-07-18 00:55:00,
2013-07-17 20:00:00,82.0,75.2,30.17,SSE,152,0.0,0.0,80,0.00,CLR,,0.01,38.5,WeatherDisplay:10.37,2013-07-18 01:00:00,
2013-07-17 20:05:00,81.8,74.6,30.17,SSE,152,0.0,0.0,79,0.00,CLR,,0.01,33.0,WeatherDisplay:10.37,2013-07-18 01:05:00,
2013-07-17 20:10:00,81.3,74.2,30.17,SSE,152,0.0,0.0,79,0.00,CLR,,0.01,27.5,WeatherDisplay:10.37,2013-07-18 01:10:00,
2013-07-17 20:15:00,80.9,74.1,30.17,SSE,152,0.0,0.0,80,0.00,CLR,,0.01,20.9,WeatherDisplay:10.37,2013-07-18 01:15:00,
2013-07-17 20:20:00,80.6,74.6,30.17,SSE,152,0.0,0.0,82,0.00,CLR,,0.01,17.6,WeatherDisplay:10.37,2013-07-18 01:20:00,
2013-07-17 20:25:00,80.4,74.4,30.17,SSE,152,0.0,0.0,82,0.00,CLR,,0.01,12.1,WeatherDisplay:10.37,2013-07-18 01:25:00,
2013-07-17 20:30:00,80.2,74.2,30.17,SSE,152,0.0,0.0,82,0.00,CLR,,0.01,7.7,WeatherDisplay:10.37,2013-07-18 01:30:00,
2013-07-17 20:35:00,80.0,74.0,30.17,SSE,152,0.0,0.0,82,0.00,CLR,,0.01,0.0,WeatherDisplay:10.37,2013-07-18 01:35:00,
2013-07-17 20:40:00,79.7,73.7,30.17,SSE,152,0.0,0.0,82,0.00,CLR,,0.01,0.0,WeatherDisplay:10.37,2013-07-18 01:40:00,
2013-07-17 20:45:00,79.4,74.5,30.17,SSE,152,0.0,0.0,85,0.00,CLR,,0.01,0.0,WeatherDisplay:10.37,2013-07-18 01:45:00,
2013-07-17 20:50:00,78.9,73.3,30.17,SSE,152,0.0,0.0,83,0.00,CLR,,0.01,0.0,WeatherDisplay:10.37,2013-07-18 01:50:00,
2013-07-17 20:55:00,78.7,73.5,30.17,SSE,152,0.0,0.0,84,0.00,CLR,,0.01,0.0,WeatherDisplay:10.37,2013-07-18 01:55:00,
2013-07-17 21:00:00,78.5,73.3,30.17,SSE,152,0.0,0.0,84,0.00,CLR,,0.01,0.0,WeatherDisplay:10.37,2013-07-18 02:00:00,
2013-07-17 21:05:00,78.2,73.3,30.17,SSE,152,0.0,0.0,85,0.00,CLR,,0.01,0.0,WeatherDisplay:10.37,2013-07-18 02:05:00,
2013-07-17 21:10:00,78.0,73.1,30.17,SSE,152,0.0,0.0,85,0.00,CLR,,0.01,0.0,WeatherDisplay:10.37,2013-07-18 02:10:00,
2013-07-17 21:15:00,77.9,73.0,30.17,SSE,152,0.0,0.0,85,0.00,CLR,,0.01,0.0,WeatherDisplay:10.37,2013-07-18 02:15:00,
2013-07-17 21:20:00,77.8,73.3,30.17,SSE,152,0.0,0.0,86,0.00,CLR,,0.01,0.0,WeatherDisplay:10.37,2013-07-18 02:20:00,
2013-07-17 21:25:00,77.7,73.2,30.17,SSE,152,0.0,0.0,86,0.00,CLR,,0.01,0.0,WeatherDisplay:10.37,2013-07-18 02:25:00,
2013-07-17 21:30:00,77.5,73.3,30.17,SSE,152,0.0,0.0,87,0.00,CLR,,0.01,0.0,WeatherDisplay:10.37,2013-07-18 02:30:00,
2013-07-17 21:35:00,77.3,73.5,30.17,SSE,152,0.0,0.0,88,0.00,CLR,,0.01,0.0,WeatherDisplay:10.37,2013-07-18 02:35:00,
2013-07-17 21:40:00,77.0,73.2,30.18,SSE,152,0.0,0.0,88,0.00,CLR,,0.01,0.0,WeatherDisplay:10.37,2013-07-18 02:40:00,
2013-07-17 21:45:00,76.9,73.4,30.18,SSE,152,0.0,0.0,89,0.00,CLR,,0.01,0.0,WeatherDisplay:10.37,2013-07-18 02:45:00,
2013-07-17 21:50:00,76.7,73.2,30.18,SSE,152,0.0,0.0,89,0.00,CLR,,0.01,0.0,WeatherDisplay:10.37,2013-07-18 02:50:00,
2013-07-17 21:55:00,76.6,73.1,30.18,SSE,152,0.0,0.0,89,0.00,CLR,,0.01,0.0,WeatherDisplay:10.37,2013-07-18 02:55:00,
2013-07-17 22:00:00,76.6,73.4,30.18,SSE,152,0.0,0.0,90,0.00,CLR,,0.01,0.0,WeatherDisplay:10.37,2013-07-18 03:00:00,
2013-07-17 22:05:00,76.4,73.2,30.18,SSE,152,0.0,0.0,90,0.00,CLR,,0.01,0.0,WeatherDisplay:10.37,2013-07-18 03:05:00,
2013-07-17 22:10:00,76.2,73.4,30.18,SSE,152,0.0,0.0,91,0.00,CLR,,0.01,0.0,WeatherDisplay:10.37,2013-07-18 03:10:00,
2013-07-17 22:15:00,76.0,73.2,30.19,SSE,152,0.0,0.0,91,0.00,CLR,,0.01,0.0,WeatherDisplay:10.37,2013-07-18 03:15:00,
2013-07-17 22:20:00,75.7,72.6,30.19,SSE,152,0.0,0.0,90,0.00,CLR,,0.01,0.0,WeatherDisplay:10.37,2013-07-18 03:20:00,
2013-07-17 22:25:00,75.7,72.6,30.19,SSE,152,0.0,0.0,90,0.00,CLR,,0.01,0.0,WeatherDisplay:10.37,2013-07-18 03:25:00,
2013-07-17 22:30:00,75.6,72.8,30.19,SSE,152,0.0,0.0,91,0.00,CLR,,0.01,0.0,WeatherDisplay:10.37,2013-07-18 03:30:00,
2013-07-17 22:35:00,75.5,72.7,30.19,SSE,152,0.0,0.0,91,0.00,CLR,,0.01,0.0,WeatherDisplay:10.37,2013-07-18 03:35:00,
2013-07-17 22:40:00,75.3,72.5,30.19,SSE,152,0.0,0.0,91,0.00,CLR,,0.01,0.0,WeatherDisplay:10.37,2013-07-18 03:40:00,
2013-07-17 22:45:00,75.2,72.7,30.19,SSE,152,0.0,0.0,92,0.00,CLR,,0.01,0.0,WeatherDisplay:10.37,2013-07-18 03:45:00,
2013-07-17 22:50:00,75.0,72.5,30.19,SSE,152,0.0,0.0,92,0.00,CLR,,0.01,0.0,WeatherDisplay:10.37,2013-07-18 03:50:00,
2013-07-17 22:55:00,74.9,72.4,30.19,SSE,152,0.0,0.0,92,0.00,CLR,,0.01,0.0,WeatherDisplay:10.37,2013-07-18 03:55:00,
2013-07-17 23:00:00,74.8,72.3,30.19,SSE,152,0.0,0.0,92,0.00,CLR,,0.01,0.0,WeatherDisplay:10.37,2013-07-18 04:00:00,
2013-07-17 23:01:00,74.8,72.3,30.19,SSE,152,0.0,0.0,92,0.00,CLR,,0.01,0.0,WeatherDisplay:10.37,2013-07-18 04:01:00,
2013-07-17 23:02:00,74.7,72.2,30.19,SSE,152,0.0,0.0,92,0.00,CLR,,0.01,0.0,WeatherDisplay:10.37,2013-07-18 04:02:00,
2013-07-17 23:07:00,74.7,72.5,30.20,SSE,152,0.0,0.0,93,0.00,CLR,,0.01,0.0,WeatherDisplay:10.37,2013-07-18 04:07:00,
2013-07-17 23:12:00,74.7,72.5,30.20,SSE,152,0.0,0.0,93,0.00,CLR,,0.01,0.0,WeatherDisplay:10.37,2013-07-18 04:12:00,
2013-07-17 23:17:00,74.7,72.2,30.20,SSE,152,0.0,0.0,92,0.00,CLR,,0.01,0.0,WeatherDisplay:10.37,2013-07-18 04:17:00,
2013-07-17 23:22:00,74.6,72.1,30.20,SSE,152,0.0,0.0,92,0.00,CLR,,0.01,0.0,WeatherDisplay:10.37,2013-07-18 04:22:00,
2013-07-17 23:27:00,74.6,72.4,30.20,SSE,152,0.0,0.0,93,0.00,CLR,,0.01,0.0,WeatherDisplay:10.37,2013-07-18 04:27:00,
2013-07-17 23:32:00,74.5,72.3,30.20,SSE,152,0.0,0.0,93,0.00,CLR,,0.01,0.0,WeatherDisplay:10.37,2013-07-18 04:32:00,
2013-07-17 23:37:00,74.5,72.3,30.20,SSE,152,0.0,0.0,93,0.00,CLR,,0.01,0.0,WeatherDisplay:10.37,2013-07-18 04:37:00,
2013-07-17 23:42:00,74.5,72.0,30.20,SSE,152,0.0,0.0,92,0.00,CLR,,0.01,0.0,WeatherDisplay:10.37,2013-07-18 04:42:00,
2013-07-17 23:47:00,74.4,71.9,30.20,SSE,152,0.0,0.0,92,0.00,CLR,,0.01,0.0,WeatherDisplay:10.37,2013-07-18 04:47:00,
2013-07-17 23:52:00,74.4,71.9,30.20,SSE,152,0.0,0.0,92,0.00,CLR,,0.01,0.0,WeatherDisplay:10.37,2013-07-18 04:52:00,
2013-07-17 23:57:00,74.3,71.8,30.20,SSE,152,0.0,0.0,92,0.00,CLR,,0.01,0.0,WeatherDisplay:10.37,2013-07-18 04:57:00,